| time (UTC) | temp C | wind direction | speed KPH | gust KPH | rain 1hr cm | rain 24hr cm | rain mn cm | humidity % | barometer mb |
| 20260508163012 | 19 | 294 | 29.0 | 37.0 | 0.00 | 0.00 | 0.00 | 30 | 1001.6 |
| 20260508161508 | 19 | 299 | 27.4 | 37.0 | 0.00 | 0.00 | 0.00 | 29 | 1001.6 |
| 20260508160004 | 19 | 269 | 25.7 | 32.2 | 0.00 | 0.00 | 0.00 | 30 | 1001.6 |
| 20260508154601 | 18 | 261 | 17.7 | 27.4 | 0.00 | 0.00 | 0.00 | 35 | 1001.5 |
| 20260508153102 | 17 | 263 | 14.5 | 20.9 | 0.00 | 0.00 | 0.00 | 37 | 1001.8 |
| 20260508151553 | 15 | 240 | 11.3 | 19.3 | 0.00 | 0.00 | 0.00 | 43 | 1001.8 |
| 20260508150053 | 15 | 252 | 12.9 | 19.3 | 0.00 | 0.00 | 0.00 | 45 | 1001.9 |
| 20260508144553 | 13 | 253 | 11.3 | 17.7 | 0.00 | 0.00 | 0.00 | 46 | 1001.9 |
| 20260508143051 | 13 | 244 | 12.9 | 19.3 | 0.00 | 0.00 | 0.00 | 46 | 1002.1 |
| 20260508141553 | 12 | 235 | 11.3 | 16.1 | 0.00 | 0.00 | 0.00 | 47 | 1002.2 |
| 20260508140039 | 11 | 245 | 9.7 | 14.5 | 0.00 | 0.00 | 0.00 | 49 | 1002.2 |
| 20260508134534 | 10 | 260 | 3.2 | 6.4 | 0.00 | 0.00 | 0.00 | 58 | 1002.4 |
| 20260508133028 | 9 | 223 | 1.6 | 8.0 | 0.00 | 0.00 | 0.00 | 57 | 1002.3 |
| 20260508131524 | 8 | 210 | 1.6 | 4.8 | 0.00 | 0.00 | 0.00 | 57 | 1002.1 |
| 20260508130020 | 8 | 207 | 1.6 | 4.8 | 0.00 | 0.00 | 0.00 | 59 | 1002.4 |
| 20260508124515 | 6 | 318 | 0.0 | 4.8 | 0.00 | 0.00 | 0.00 | 70 | 1002.5 |
| 20260508123012 | 5 | 360 | 1.6 | 8.0 | 0.00 | 0.00 | 0.00 | 70 | 1002.5 |
| 20260508121510 | 3 | 237 | 3.2 | 6.4 | 0.00 | 0.00 | 0.00 | 73 | 1002.4 |
| 20260508120009 | 3 | 244 | 3.2 | 11.3 | 0.00 | 0.00 | 0.00 | 74 | 1002.6 |
| 20260508114504 | 3 | 336 | 1.6 | 6.4 | 0.00 | 0.00 | 0.00 | 72 | 1002.5 |
| 20260508113106 | 3 | 199 | 1.6 | 6.4 | 0.00 | 0.00 | 0.00 | 72 | 1002.7 |
| 20260508111558 | 3 | 199 | 6.4 | 8.0 | 0.00 | 0.00 | 0.00 | 69 | 1002.8 |
| 20260508110057 | 5 | 175 | 0.0 | 3.2 | 0.00 | 0.00 | 0.00 | 67 | 1002.7 |
| 20260508104556 | 5 | 175 | 0.0 | 3.2 | 0.00 | 0.00 | 0.00 | 67 | 1002.7 |
| 20260508103055 | 5 | 175 | 3.2 | 6.4 | 0.00 | 0.00 | 0.00 | 66 | 1003.0 |
| 20260508101553 | 5 | 13 | 3.2 | 4.8 | 0.00 | 0.00 | 0.00 | 66 | 1003.0 |
| 20260508100052 | 5 | 5 | 4.8 | 8.0 | 0.00 | 0.00 | 0.00 | 66 | 1003.4 |
| 20260508094609 | 6 | 303 | 1.6 | 6.4 | 0.00 | 0.00 | 0.00 | 64 | 1003.3 |
| 20260508093051 | 6 | 221 | 3.2 | 6.4 | 0.00 | 0.00 | 0.00 | 62 | 1003.3 |
| 20260508091550 | 5 | 220 | 4.8 | 9.7 | 0.00 | 0.00 | 0.00 | 64 | 1003.2 |
| 20260508090052 | 5 | 223 | 1.6 | 4.8 | 0.00 | 0.00 | 0.00 | 62 | 1003.2 |
| 20260508084547 | 5 | 223 | 4.8 | 6.4 | 0.00 | 0.00 | 0.00 | 64 | 1003.6 |
| 20260508083046 | 5 | 319 | 0.0 | 3.2 | 0.00 | 0.00 | 0.00 | 62 | 1003.4 |
| 20260508081608 | 5 | 329 | 4.8 | 8.0 | 0.00 | 0.00 | 0.00 | 63 | 1003.7 |
| 20260508080044 | 5 | 22 | 4.8 | 14.5 | 0.00 | 0.00 | 0.00 | 65 | 1003.6 |
| 20260508074543 | 4 | 228 | 6.4 | 11.3 | 0.00 | 0.00 | 0.00 | 67 | 1003.7 |
| 20260508073043 | 3 | 230 | 3.2 | 9.7 | 0.00 | 0.00 | 0.00 | 71 | 1003.8 |
| 20260508071545 | 2 | 225 | 8.0 | 11.3 | 0.00 | 0.00 | 0.00 | 71 | 1003.9 |
| 20260508070042 | 2 | 223 | 8.0 | 9.7 | 0.00 | 0.00 | 0.00 | 69 | 1003.9 |
| 20260508064538 | 1 | 220 | 6.4 | 9.7 | 0.00 | 0.00 | 0.00 | 72 | 1003.9 |
| 20260508063046 | 2 | 284 | 3.2 | 6.4 | 0.00 | 0.00 | 0.00 | 67 | 1003.9 |
| 20260508061533 | 2 | 263 | 3.2 | 6.4 | 0.00 | 0.00 | 0.00 | 64 | 1003.9 |
| 20260508060034 | 3 | 259 | 1.6 | 6.4 | 0.00 | 0.00 | 0.00 | 59 | 1004.0 |
| 20260508054524 | 5 | 242 | 4.8 | 6.4 | 0.00 | 0.00 | 0.00 | 55 | 1004.1 |
| 20260508053023 | 5 | 216 | 4.8 | 6.4 | 0.00 | 0.00 | 0.00 | 53 | 1004.2 |
| 20260508051516 | 6 | 215 | 3.2 | 6.4 | 0.00 | 0.00 | 0.00 | 49 | 1004.1 |
| 20260508050017 | 6 | 215 | 3.2 | 6.4 | 0.00 | 0.00 | 0.00 | 48 | 1004.3 |
| 20260508044514 | 7 | 215 | 4.8 | 8.0 | 0.00 | 0.00 | 0.00 | 48 | 1004.3 |
| 20260508043013 | 7 | 238 | 3.2 | 6.4 | 0.00 | 0.00 | 0.00 | 46 | 1004.4 |
| 20260508041513 | 6 | 238 | 3.2 | 6.4 | 0.00 | 0.00 | 0.00 | 50 | 1004.4 |
| 20260508040012 | 6 | 237 | 4.8 | 8.0 | 0.00 | 0.00 | 0.00 | 51 | 1004.5 |
| 20260508034512 | 6 | 259 | 3.2 | 8.0 | 0.00 | 0.00 | 0.00 | 48 | 1004.6 |
| 20260508033011 | 7 | 229 | 6.4 | 9.7 | 0.00 | 0.00 | 0.00 | 47 | 1004.5 |
| 20260508031511 | 9 | 248 | 0.0 | 3.2 | 0.00 | 0.00 | 0.00 | 38 | 1004.4 |
| 20260508030011 | 9 | 246 | 0.0 | 4.8 | 0.00 | 0.00 | 0.00 | 39 | 1004.5 |
| 20260508024517 | 9 | 48 | 0.0 | 6.4 | 0.00 | 0.00 | 0.00 | 41 | 1004.4 |
| 20260508023009 | 9 | 5 | 1.6 | 4.8 | 0.00 | 0.00 | 0.00 | 39 | 1004.3 |
| 20260508021508 | 11 | 229 | 3.2 | 6.4 | 0.00 | 0.00 | 0.00 | 36 | 1004.1 |
| 20260508020008 | 11 | 230 | 4.8 | 6.4 | 0.00 | 0.00 | 0.00 | 36 | 1004.1 |
| 20260508014509 | 12 | 243 | 1.6 | 3.2 | 0.00 | 0.00 | 0.00 | 35 | 1004.1 |
| 20260508013006 | 12 | 260 | 1.6 | 4.8 | 0.00 | 0.00 | 0.00 | 34 | 1004.1 |
| 20260508011505 | 13 | 261 | 3.2 | 11.3 | 0.00 | 0.00 | 0.00 | 33 | 1004.2 |
| 20260508010005 | 15 | 257 | 6.4 | 11.3 | 0.00 | 0.00 | 0.00 | 31 | 1004.2 |
| 20260508004504 | 15 | 261 | 6.4 | 14.5 | 0.00 | 0.00 | 0.00 | 29 | 1004.1 |
| 20260508003005 | 16 | 249 | 14.5 | 24.1 | 0.00 | 0.00 | 0.00 | 23 | 1004.1 |
| 20260508001502 | 16 | 267 | 12.9 | 20.9 | 0.00 | 0.00 | 0.00 | 24 | 1004.1 |
| 20260508000002 | 16 | 271 | 12.9 | 20.9 | 0.00 | 0.00 | 0.00 | 23 | 1004.2 |
| 20260507234501 | 16 | 284 | 12.9 | 22.5 | 0.00 | 0.00 | 0.00 | 22 | 1004.4 |
| 20260507233100 | 17 | 286 | 14.5 | 20.9 | 0.00 | 0.00 | 0.00 | 22 | 1004.2 |
| 20260507231600 | 17 | 276 | 17.7 | 24.1 | 0.00 | 0.00 | 0.00 | 21 | 1004.3 |
| 20260507230104 | 17 | 252 | 12.9 | 22.5 | 0.00 | 0.00 | 0.00 | 23 | 1004.5 |
| 20260507224559 | 17 | 244 | 17.7 | 24.1 | 0.00 | 0.00 | 0.00 | 20 | 1004.3 |
| 20260507223056 | 16 | 240 | 12.9 | 25.7 | 0.00 | 0.00 | 0.00 | 21 | 1004.5 |
| 20260507221554 | 16 | 312 | 9.7 | 29.0 | 0.00 | 0.00 | 0.00 | 22 | 1004.6 |
| 20260507220053 | 17 | 263 | 12.9 | 24.1 | 0.00 | 0.00 | 0.00 | 21 | 1004.8 |
| 20260507214603 | 17 | 281 | 19.3 | 32.2 | 0.00 | 0.00 | 0.00 | 22 | 1004.7 |
| 20260507213050 | 16 | 327 | 4.8 | 24.1 | 0.00 | 0.00 | 0.00 | 23 | 1004.9 |
| 20260507211551 | 16 | 276 | 20.9 | 30.6 | 0.00 | 0.00 | 0.00 | 23 | 1004.9 |
| 20260507210052 | 16 | 287 | 6.4 | 19.3 | 0.00 | 0.00 | 0.00 | 25 | 1004.9 |
| 20260507204546 | 16 | 285 | 11.3 | 22.5 | 0.00 | 0.00 | 0.00 | 23 | 1005.2 |
| 20260507203102 | 15 | 223 | 9.7 | 29.0 | 0.00 | 0.00 | 0.00 | 25 | 1005.4 |
| 20260507201554 | 15 | 342 | 6.4 | 22.5 | 0.00 | 0.00 | 0.00 | 23 | 1005.6 |
| 20260507200058 | 16 | 248 | 17.7 | 24.1 | 0.00 | 0.00 | 0.00 | 26 | 1005.8 |
| 20260507194538 | 15 | 215 | 9.7 | 24.1 | 0.00 | 0.00 | 0.00 | 28 | 1005.9 |
| 20260507193044 | 15 | 263 | 12.9 | 24.1 | 0.00 | 0.00 | 0.00 | 27 | 1006.2 |
| 20260507191535 | 15 | 261 | 11.3 | 22.5 | 0.00 | 0.00 | 0.00 | 29 | 1006.2 |
| 20260507190034 | 15 | 323 | 16.1 | 22.5 | 0.00 | 0.00 | 0.00 | 27 | 1006.3 |
| 20260507184532 | 15 | 263 | 6.4 | 24.1 | 0.00 | 0.00 | 0.00 | 32 | 1006.4 |
| 20260507183033 | 14 | 170 | 4.8 | 20.9 | 0.00 | 0.00 | 0.00 | 33 | 1006.4 |
| 20260507181531 | 14 | 249 | 16.1 | 30.6 | 0.00 | 0.00 | 0.00 | 30 | 1006.6 |
| 20260507180027 | 13 | 200 | 6.4 | 24.1 | 0.00 | 0.00 | 0.00 | 32 | 1006.7 |
| 20260507174524 | 13 | 205 | 12.9 | 19.3 | 0.00 | 0.00 | 0.00 | 34 | 1006.9 |
| 20260507173030 | 13 | 249 | 16.1 | 24.1 | 0.00 | 0.00 | 0.00 | 35 | 1007.3 |
| 20260507171516 | 12 | 230 | 8.0 | 19.3 | 0.00 | 0.00 | 0.00 | 34 | 1007.5 |
| 20260507170015 | 12 | 170 | 8.0 | 25.7 | 0.00 | 0.00 | 0.00 | 36 | 1007.7 |
| 20260507164511 | 12 | 225 | 8.0 | 20.9 | 0.00 | 0.00 | 0.00 | 35 | 1007.9 |